Home > Weather > Baghlan > Past weeks

Flag for Afghanistan Weather for the Past 2 Weeks in Baghlan, Afghanistan

Now
30 °F

Passing clouds.


Feels Like: 30 °F
Forecast: 24 / 47 °F
Wind: No wind

Location: Termez Airport

Current Time: Feb 13, 2016 at 3:30:09 AM

Latest Report: Feb 13, 2016 at 1:30 AM


Visibility: N/A

Pressure: 30.33 "Hg (28.36 "Hg at 536m altitude)

Humidity: 86%

Dew point: 27 °F

Location of BaghlanLocation

Historic Weather in Baghlan — Graph

°F

Baghlan Temperature Yesterday

Maximum temperature yesterday: 43 °F (at 2:30 PM)
Minimum temperature yesterday: 19 °F (at 7:00 AM)
Average temperature yesterday: 33 °F

High & Low Weather Summary for the Past Weeks

 TemperatureHumidityPressure
High70 °F (Feb 8, 2:00 PM)100% (Jan 29, 1:30 AM)30.57 "Hg (Jan 29, 1:30 AM)
Low19 °F (Feb 12, 7:00 AM)20% (Feb 8, 3:30 PM)29.92 "Hg (Feb 8, 4:00 PM)
Average40 °F75%30.28 "Hg
* Reported Jan 29 1:30 AM — Feb 13 1:30 AM, Baghlan, Weather by CustomWeather, © 2016

Note: Actual official high and low records may vary slightly from our data, if they occured in-between our weather recording intervals... More about our weather records

Advertising

Baghlan Weather History for the Previous 24 Hours

 ConditionsComfort  
Time TempWeatherWind HumidityBarometerVisibility
1:30 AM
Sat, Feb 13
30 °FPassing clouds.No wind86%30.33 "HgN/A
12:30 AM28 °FPassing clouds.No wind93%30.36 "HgN/A
11:30 PM
Fri, Feb 12
28 °FClear.2 mph86%30.33 "Hg10 mi
11:00 PM30 °FClear.2 mph80%30.33 "Hg10 mi
10:30 PM30 °FClear.5 mph80%30.33 "Hg10 mi
10:00 PM30 °FClear.7 mph80%30.33 "Hg10 mi
9:30 PM30 °FClear.8 mph80%30.33 "Hg10 mi
9:00 PM32 °FClear.9 mph75%30.33 "Hg10 mi
8:30 PM32 °FClear.8 mph75%30.30 "Hg10 mi
8:00 PM34 °FClear.9 mph70%30.30 "Hg10 mi
7:30 PM34 °FClear.8 mph70%30.30 "Hg10 mi
7:00 PM36 °FClear.8 mph65%30.30 "Hg10 mi
6:30 PM36 °FClear.8 mph65%30.27 "Hg10 mi
6:00 PM36 °FClear.8 mph60%30.27 "Hg10 mi
5:30 PM37 °FSunny.9 mph56%30.27 "Hg10 mi
5:00 PM41 °FSunny.9 mph49%30.27 "Hg10 mi
4:30 PM41 °FPassing clouds.8 mph49%30.24 "HgN/A
4:00 PM43 °FSunny.8 mph46%30.24 "Hg10 mi
3:30 PM41 °FSunny.9 mph49%30.24 "Hg10 mi
3:00 PM43 °FPassing clouds.7 mph46%30.24 "HgN/A
2:30 PM43 °FPassing clouds.7 mph46%30.24 "HgN/A
2:00 PM41 °FPassing clouds.5 mph49%30.24 "HgN/A
1:30 PM41 °FPassing clouds.5 mph49%30.24 "HgN/A
1:00 PM41 °FPassing clouds.6 mph49%30.27 "HgN/A
12:30 PM39 °FPassing clouds.3 mph52%30.27 "HgN/A
12:00 PM39 °FPassing clouds.5 mph56%30.27 "HgN/A
11:30 AM37 °FPassing clouds.5 mph60%30.27 "HgN/A
11:00 AM36 °FPassing clouds.3 mph65%30.27 "HgN/A
10:30 AM36 °FPassing clouds.5 mph65%30.27 "HgN/A
10:00 AM34 °FPassing clouds.3 mph70%30.27 "HgN/A
9:30 AM32 °FClear.3 mph69%30.27 "Hg4 mi
9:00 AM30 °FClear.2 mph80%30.27 "Hg4 mi
8:30 AM28 °FClear.1 mph93%30.27 "Hg4 mi
8:00 AM25 °FIce fog.2 mph93%30.27 "Hg3 mi
7:30 AM21 °FIce fog.1 mph93%30.27 "Hg3 mi
7:00 AM19 °FIce fog.No wind100%30.24 "Hg3 mi
6:30 AM21 °FClear.5 mph100%30.24 "Hg4 mi
5:30 AM21 °FClear.3 mph93%30.24 "Hg10 mi
4:30 AM23 °FClear.No wind100%30.24 "Hg10 mi
3:30 AM25 °FClear.3 mph93%30.24 "Hg10 mi
Weather by CustomWeather, © 2016

See weather overviewHow to use our weather pages